This demonstration page uses our WeatherBlox Daily Observations layout. Learn more.

Hourly Observations for June 12, 2016

Temp ( °F °C ) Dew Point ( °F °C ) Humidity (%) Winds ( mph kmh ) Pressure ( in mb ) Visibility ( mi km ) Precip ( " mm )
12:15 am 00:15 Clear 76 24.3 61 16.3 61 61 SSE 10 17 29.88 1012 10 16.09344 0 0
12:35 am 00:35 Clear 75 24 61 16.1 61 61 SSE 9 15 29.88 1012 10 16.09344 0 0
12:55 am 00:55 Clear 74 23.6 61 16.1 63 63 S 9 15 29.88 1012 10 16.09344 0 0
1:15 am 01:15 Clear 75 24 61 16 61 61 S 9 15 29.88 1012 10 16.09344 0 0
1:35 am 01:35 Clear 75 23.7 61 16 62 62 SSE 8 13 29.88 1012 10 16.09344 0 0
1:55 am 01:55 Clear 73 23 61 16.1 65 65 SSE 7 11 29.91 1013 10 16.09344 0 0
2:15 am 02:15 Clear 73 22.8 61 16.1 66 66 S 8 13 29.91 1013 10 16.09344 0 0
2:35 am 02:35 Clear 73 22.7 61 16.2 67 67 SSE 9 15 29.91 1013 10 16.09344 0 0
2:55 am 02:55 Clear 72 22 61 16.2 70 70 SSE 9 15 29.91 1013 10 16.09344 0 0
3:15 am 03:15 Clear 71 21.5 61 16.2 72 72 SSE 9 15 29.91 1013 10 16.09344 0 0
3:35 am 03:35 Clear 70 21.3 61 16.3 73 73 SSE 8 13 29.91 1013 10 16.09344 0 0
3:55 am 03:55 Clear 70 21 61 16.3 75 75 SSE 7 11 29.91 1013 10 16.09344 0 0
4:15 am 04:15 Clear 69 20.7 62 16.6 77 77 SSE 8 13 29.91 1013 10 16.09344 0 0
4:35 am 04:35 Clear 70 21 62 16.5 76 76 S 7 11 29.91 1013 10 16.09344 0 0
4:55 am 04:55 Clear 69 20.7 62 16.7 78 78 S 9 15 29.91 1013 10 16.09344 0 0
5:15 am 05:15 Clear 69 20.5 62 16.8 79 79 S 7 11 29.91 1013 10 16.09344 0 0
5:35 am 05:35 Clear 68 20.1 63 17 82 82 S 9 15 29.91 1013 10 16.09344 0 0
5:55 am 05:55 Clear 68 20 63 17.1 83 83 S 9 15 29.91 1013 10 16.09344 0 0
6:15 am 06:15 Sunny 68 20 63 17.2 84 84 S 9 15 29.91 1013 10 16.09344 0 0
6:35 am 06:35 Sunny 68 20 63 17.2 84 84 SSE 7 11 29.91 1013 10 16.09344 0 0
6:55 am 06:55 Sunny 68 20.1 63 17.2 83 83 SSE 7 11 29.91 1013 10 16.09344 0 0
7:15 am 07:15 Sunny 69 20.8 63 17.3 80 80 S 9 15 29.94 1014 10 16.09344 0 0
7:35 am 07:35 Sunny 71 21.5 63 17.2 77 77 S 10 17 29.94 1014 10 16.09344 0 0
7:55 am 07:55 Sunny 72 22 63 17.1 74 74 SSW 13 20 29.94 1014 10 16.09344 0 0
8:15 am 08:15 Sunny 73 22.7 63 17 70 70 S 12 19 29.94 1014 10 16.09344 0 0
8:35 am 08:35 Sunny 74 23.3 63 17.1 68 68 S 13 20 29.94 1014 10 16.09344 0 0
8:55 am 08:55 Sunny 75 24.1 63 17.1 65 65 SSW 13 20 29.91 1013 10 16.09344 0 0
9:15 am 09:15 Sunny 77 25.1 63 17.3 62 62 SSW 16 26 29.91 1013 10 16.09344 0 0
9:35 am 09:35 Sunny 78 25.7 64 17.7 61 61 SSW 12 19 29.91 1013 10 16.09344 0 0
9:55 am 09:55 Sunny 79 26.3 64 18 60 60 S 14 22 29.91 1013 10 16.09344 0 0
10:15 am 10:15 Sunny 80 26.6 64 17.9 59 59 S 12 19 29.91 1013 10 16.09344 0 0
10:35 am 10:35 Sunny 81 27.2 64 18 57 57 S 15 24 29.88 1012 10 16.09344 0 0
10:55 am 10:55 Sunny 82 27.8 65 18.2 56 56 S 13 20 29.88 1012 10 16.09344 0 0
11:15 am 11:15 Sunny 82 28 64 17.9 54 54 S 14 22 29.88 1012 10 16.09344 0 0
11:35 am 11:35 Sunny 84 28.8 65 18.2 53 53 SSW 18 30 29.88 1012 10 16.09344 0 0
11:55 am 11:55 Sunny 84 28.8 64 18 52 52 S 15 24 29.88 1012 10 16.09344 0 0
12:15 pm 12:15 Sunny 84 29.1 64 17.5 50 50 S 18 30 29.88 1012 10 16.09344 0 0
12:35 pm 12:35 Sunny 85 29.5 64 17.9 50 50 S 15 24 29.88 1012 10 16.09344 0 0
12:55 pm 12:55 Sunny 86 30 63 17.2 46 46 S 20 31 29.88 1012 10 16.09344 0 0
1:15 pm 13:15 Sunny 86 30.2 63 17.4 46 46 SSW 14 22 29.88 1012 10 16.09344 0 0
1:35 pm 13:35 Sunny 87 30.5 64 17.7 46 46 S 10 17 29.88 1012 10 16.09344 0 0
1:55 pm 13:55 Sunny 88 31 63 17.3 44 44 S 14 22 29.85 1011 10 16.09344 0 0
2:15 pm 14:15 Sunny 88 31 64 17.6 45 45 S 13 20 29.85 1011 10 16.09344 0 0
2:35 pm 14:35 Sunny 88 31 63 17 43 43 S 17 28 29.85 1011 10 16.09344 0 0
2:55 pm 14:55 Sunny 89 31.4 63 17.4 43 43 S 17 28 29.83 1010 10 16.09344 0 0
3:15 pm 15:15 Sunny 88 31.2 62 16.8 42 42 S 16 26 29.83 1010 10 16.09344 0 0
3:35 pm 15:35 Sunny 89 31.9 62 16.7 40 40 S 14 22 29.83 1010 10 16.09344 0 0
3:55 pm 15:55 Sunny 89 31.5 62 16.6 41 41 SSE 14 22 29.8 1009 10 16.09344 0 0
4:15 pm 16:15 Sunny 89 31.8 61 16.3 39 39 S 16 26 29.8 1009 10 16.09344 0 0
4:35 pm 16:35 Sunny 89 31.9 61 16 38 38 S 16 26 29.8 1009 10 16.09344 0 0
4:55 pm 16:55 Sunny 89 31.7 59 15 36 36 S 14 22 29.8 1009 10 16.09344 0 0
5:15 pm 17:15 Sunny 90 32 60 15.5 37 37 S 14 22 29.8 1009 10 16.09344 0 0
5:35 pm 17:35 Sunny 90 32.2 60 15.3 36 36 S 16 26 29.83 1010 10 16.09344 0 0
5:55 pm 17:55 Sunny 90 32.2 59 15.2 36 36 S 14 22 29.83 1010 10 16.09344 0 0
6:15 pm 18:15 Sunny 89 31.6 58 14.4 35 35 S 10 17 29.83 1010 10 16.09344 0 0
6:35 pm 18:35 Sunny 89 31.5 59 15.2 37 37 SSW 9 15 29.83 1010 10 16.09344 0 0
6:55 pm 18:55 Sunny 89 31.5 59 15 37 37 S 10 17 29.83 1010 10 16.09344 0 0
7:15 pm 19:15 Sunny 87 30.8 60 15.3 39 39 S 7 11 29.83 1010 10 16.09344 0 0
7:35 pm 19:35 Sunny 86 30.2 61 15.9 42 42 S 7 11 29.85 1011 10 16.09344 0 0
7:55 pm 19:55 Sunny 86 29.8 61 15.9 43 43 SSE 6 9 29.85 1011 10 16.09344 0 0
8:15 pm 20:15 Sunny 85 29.4 62 16.5 46 46 S 3 6 29.85 1011 10 16.09344 0 0
8:35 pm 20:35 Sunny 84 28.7 63 17 49 49 S 3 6 29.85 1011 10 16.09344 0 0
8:55 pm 20:55 Sunny 82 27.9 63 17.4 53 53 Calm 29.88 1012 10 16.09344 0 0
9:15 pm 21:15 Clear 78 25.7 59 15.2 52 52 NNW 14 22 29.91 1013 10 16.09344 0 0
9:35 pm 21:35 Clear 77 25 60 15.6 56 56 NNW 8 13 29.91 1013 10 16.09344 0 0
9:55 pm 21:55 Clear 76 24.5 60 15.7 58 58 N 6 9 29.91 1013 10 16.09344 0 0
10:15 pm 22:15 Clear 75 23.9 60 15.8 61 61 N 3 6 29.91 1013 10 16.09344 0 0
10:35 pm 22:35 Clear 73 22.6 61 16 66 66 NE 3 6 29.94 1014 10 16.09344 0 0
10:55 pm 22:55 Clear 73 23 60 15.5 63 63 Calm 29.94 1014 10 16.09344 0 0
11:15 pm 23:15 Clear 74 23.2 60 15.7 63 63 Calm 29.94 1014 10 16.09344 0 0
11:35 pm 23:35 Clear 74 23.5 61 15.9 62 62 Calm 29.88 1012 10 16.09344 0 0
11:55 pm 23:55 Clear 73 23 61 16.1 65 65 Calm 29.91 1013 10 16.09344 0 0

Powered by AerisWeather